Regional Weather Roundup
Issued by NWS

Home | Current Version | Previous Version | Text Only | Print | Product List | Glossary Off
Versions: 1 2 3 4 5 6 7 8 9 10 11 12 13 14 15 16 17 18 19 20 21 22 23 24 25 26 27 28 29 30 31 32 33 34 35 36 37 38 39 40 41 42 43 44 45 46 47 48 49 50

943
ASUS43 KLMK 200202
RWRKY
KENTUCKY REGIONAL WEATHER ROUNDUP
NATIONAL WEATHER SERVICE LOUISVILLE KY
900 PM EST THU JAN 19 2017

NOTE "FAIR" INDICATES FEW OR NO CLOUDS BELOW 12,000 FEET
WITH NO SIGNIFICANT WEATHER AND/OR OBSTRUCTIONS TO VISIBILITY.

KYZ001>023-026-027-061>063-070>075-200300-
WESTERN AND SOUTH CENTRAL KENTUCKY

CITY           SKY/WX    TMP DP  RH WIND       PRES   REMARKS
PADUCAH        CLOUDY    60  56  86 S9        29.67F
HENDERSON      CLOUDY    54  50  87 CALM      29.69F
OWENSBORO      LGT RAIN  54  54 100 SE8       29.72F
HOPKINSVILLE   DRIZZLE   55  55 100 CALM      29.71F
BOWLING GREEN  LGT RAIN  56  55  97 E6        29.71F FOG
GLASGOW        NOT AVBL
$$

KYZ024-025-028>034-038-045-046-053-200300-
NORTH CENTRAL KENTUCKY

CITY           SKY/WX    TMP DP  RH WIND       PRES   REMARKS
LOUISVILLE/SDF LGT RAIN  51  49  92 E3        29.76F
LOUISVILLE/LOU LGT RAIN  51  48  89 E3        29.77F
FORT KNOX      LGT RAIN  51  51 100 E6        29.74F
$$

KYZ035>037-039>044-047>052-055>060-089>105-200300-
NORTHEAST KENTUCKY

CITY           SKY/WX    TMP DP  RH WIND       PRES   REMARKS
LEXINGTON      LGT RAIN  50  47  89 SE10      29.81F
COVINGTON      CLOUDY    47  43  86 E9        29.81F
FRANKFORT      LGT RAIN  49  45  86 E6        29.79F
$$

KYZ054-064>069-076>088-106>120-200300-
SOUTHEAST KENTUCKY

CITY           SKY/WX    TMP DP  RH WIND       PRES   REMARKS
JACKSON        MOCLDY    50  41  71 E7        29.85F
LONDON         LGT RAIN  50  47  89 E3        29.84F
SOMERSET       NOT AVBL
MIDDLESBORO    CLOUDY    51  47  87 W5        29.87F
MONTICELLO     LGT RAIN  54  53  97 VRB3      29.82F
$$





USA.gov is the U.S. government's official web portal to all federal, state and local government web resources and services.